Lincoln Laboratory Near-Earth Asteroid Research project
軌道要素
Epoch = 2003 Mar. 22.0 TT
T = 2003 Mar. 15.65648 TT Peri. = 107.97244
e = 0.3516264 Node = 231.14275 2000.0
q = 2.3704767 AU Incl. = 11.51911
a = 3.6560353 AU n = 0.14099006 P = 6.99 years
星図
光度変化
m1 = 7.0 + 5 logΔ + 20 log r
軌道要素は、CBET 1772に掲載されたものです。
星図は StellaNavigator Ver.2.0 for Windows (アストロアーツ編著 / アスキー出版局刊) で作成したものです。
光度グラフはComet for Windowsで作成したものです。
Copyright(C) Seiichi Yoshida (comet@aerith.net). All rights reserved.